Flag for United Kingdom Weather past 2 weeks in Inverness, Scotland, United Kingdom

Now
61 °F

Sunny.


Feels Like: 61 °F
Forecast: 41 / 64 °F
Wind: 12 mph from Southwest

Location: Inverness / Dalcross


UV Index: 0 (Low)

Visibility: 10 mi


Pressure: 30.09 "Hg

Humidity: 36%

Dew point: 34 °F

Location of InvernessLocation

Historic Weather in Inverness

°F

Inverness temperature yesterday

Maximum temperature yesterday: 50 °F (at 1:20 PM)
Minimum temperature yesterday: 39 °F (at 9:20 PM)
Average temperature yesterday: 45 °F

Past Weeks' High & Low Weather Summary

 TemperatureHumidityPressure
High64 °F (Apr 6, 1:20 PM)100% (Apr 4, 3:20 AM)30.39 "Hg (Apr 4, 3:20 AM)
Low28 °F (Apr 15, 5:50 AM)42% (Apr 15, 3:20 PM)29.30 "Hg (Apr 6, 2:50 PM)
Average47 °F77%29.85 "Hg
* Reported Apr 3 2:20 PM — Apr 18 2:20 PM, Inverness, Weather by CustomWeather, © 2014

Note: Actual official high and low records may vary slightly from our data, if they occured in-between our weather recording intervals... More about our weather records

Advertising

Historic Weather Conditions — Data for Previous 24 hours

 ConditionsComfort  
Time TempWeatherWind HumidityBarometerVisibility
2:20 PM
Apr 18
57 °FSunny.9 mph44%30.12 "Hg10 mi
1:50 PM57 °FPassing clouds.8 mph44%30.12 "HgN/A
1:20 PM55 °FPassing clouds.7 mph44%30.12 "HgN/A
12:50 PM55 °FPassing clouds.7 mph44%30.12 "HgN/A
12:20 PM54 °FSunny.9 mph51%30.15 "Hg10 mi
11:50 AM52 °FPassing clouds.12 mph50%30.15 "HgN/A
11:20 AM52 °FSunny.13 mph47%30.15 "Hg10 mi
10:50 AM50 °FSunny.9 mph54%30.15 "Hg10 mi
10:20 AM48 °FSunny.9 mph58%30.15 "Hg10 mi
9:50 AM46 °FSunny.9 mph62%30.18 "Hg10 mi
9:20 AM43 °FSunny.8 mph71%30.18 "Hg10 mi
8:50 AM41 °FSunny.10 mph76%30.18 "Hg10 mi
8:20 AM39 °FSunny.6 mph75%30.18 "Hg10 mi
7:50 AM37 °FSunny.6 mph81%30.18 "Hg10 mi
7:20 AM34 °FSunny.5 mph87%30.18 "Hg10 mi
6:50 AM30 °FClear.5 mph93%30.18 "Hg10 mi
6:20 AM30 °FClear.7 mph93%30.18 "Hg10 mi
5:50 AM28 °FClear.6 mph93%30.15 "Hg10 mi
5:20 AM28 °FClear.5 mph93%30.15 "Hg10 mi
4:50 AM30 °FClear.5 mph86%30.15 "Hg10 mi
4:20 AM30 °FClear.6 mph86%30.15 "Hg10 mi
3:50 AM32 °FPassing clouds.7 mph87%30.18 "HgN/A
3:20 AM34 °FPassing clouds.7 mph87%30.18 "HgN/A
2:50 AM37 °FPassing clouds.7 mph81%30.18 "HgN/A
2:20 AM37 °FPassing clouds.5 mph81%30.18 "HgN/A
1:50 AM36 °FOvercast.6 mph81%30.15 "HgN/A
1:20 AM36 °FPassing clouds.6 mph81%30.15 "HgN/A
12:20 AM37 °FOvercast.5 mph75%30.15 "HgN/A
11:50 PM
Apr 17
39 °FOvercast.7 mph70%30.15 "HgN/A
11:20 PM41 °FOvercast.6 mph66%30.15 "HgN/A
10:50 PM41 °FOvercast.6 mph66%30.15 "HgN/A
10:20 PM41 °FPassing clouds.8 mph66%30.12 "HgN/A
9:50 PM41 °FPassing clouds.7 mph66%30.12 "HgN/A
9:20 PM39 °FPassing clouds.7 mph70%30.12 "HgN/A
8:50 PM41 °FPassing clouds.9 mph66%30.12 "HgN/A
8:20 PM41 °FPassing clouds.14 mph70%30.09 "HgN/A
7:50 PM45 °FPassing clouds.14 mph66%30.09 "HgN/A
7:20 PM43 °FPassing clouds.9 mph66%30.07 "HgN/A
6:50 PM45 °FPassing clouds.18 mph66%30.07 "HgN/A
5:50 PM45 °FScattered showers. Scattered clouds.21 mph76%30.01 "HgN/A
5:20 PM46 °FScattered showers. Scattered clouds.21 mph76%30.01 "HgN/A
4:50 PM43 °FSleet. Scattered clouds.24 mph87%30.01 "HgN/A
4:20 PM45 °FSprinkles. Scattered clouds.15 mph87%29.98 "HgN/A
Weather by CustomWeather, © 2014

See weather overview